STARLINK-34725

Last updated on Tue Aug 19 2025 00:02:05 GMT+0000 (Coordinated Universal Time)

1 64843U 25152B 25230.58335648 .00035634 00000+0 91211-3 0 9991 2 64843 97.6040 84.1549 0001551 90.5996 208.8830 15.39326601 5420
UTC large
Height (km)
Speed (km/s)
/
Latitude / Longitude
Inclination (degrees)
Orbital Period (minutes)
Azimuth
Elevation
Range (km)
Doppler Factor

Next 0 passes for location: London (51.5072 / 0.1276)

Sorry there are no passes over London.
STARLINK-34725